User: anonymous   Login
Location: Carnoy
(49.9849°N, 2.7558°E)
Time: 02:29:55
(UTC+00:00)
Language:

Cosmos 1943 - Orbit

View from above orbital plane
View from above orbital plane
View from above satellite
View from above satellite

Ground track
Ground track

The orbit data is extracted from the following two-line orbital elements,

1 19119U 88039A   20090.86020537 +.00000015 +00000-0 +32538-4 0  9992
2 19119 071.0020 124.5332 0013500 303.1985 228.6332 14.15152692646065
Epoch (UTC): 30 March 2020 20:38:41
Eccentricity: 0.0013500
inclination: 71.0020°
perigee height: 832 km
apogee height: 851 km
right ascension of ascending node: 124.5332°
argument of perigee: 303.1985°
revolutions per day: 14.15152692
mean anomaly at epoch: 228.6332°
orbit number at epoch: 64606

The dashed part of the orbit path shows where the satellite is in the earth's shadow,  

DLR